Home > Weather > Luanda > Past weeks

Flag for Angola Weather for the Past 2 Weeks in Luanda, Angola

Now
77 °F

Broken clouds.


Feels Like: 78 °F
Forecast: 80 / 83 °F
Wind: 2 mph from North

Location: Luanda Airport

Current Time: Feb 8, 2016 at 10:18:10 AM

Latest Report: Feb 8, 2016 at 9:00 AM


Visibility: N/A

Pressure: 29.95 "Hg

Humidity: 94%

Dew point: 75 °F

Location of LuandaLocation

Historic Weather in Luanda — Graph

°F

Luanda Temperature Yesterday

Maximum temperature yesterday: 86 °F (at 11:00 AM)
Minimum temperature yesterday: 79 °F (at 12:00 AM)
Average temperature yesterday: 82 °F

High & Low Weather Summary for the Past Weeks

 TemperatureHumidityPressure
High91 °F (Jan 29, 2:00 PM)100% (Feb 8, 6:40 AM)29.98 "Hg (Feb 8, 6:40 AM)
Low73 °F (Feb 8, 8:00 AM)52% (Feb 4, 12:00 PM)29.74 "Hg (Feb 4, 4:00 PM)
Average82 °F78%29.86 "Hg
* Reported Jan 24 9:00 AM — Feb 8 9:00 AM, Luanda, Weather by CustomWeather, © 2016

Note: Actual official high and low records may vary slightly from our data, if they occured in-between our weather recording intervals... More about our weather records

Advertising

Luanda Weather History for the Previous 24 Hours

 ConditionsComfort  
Time TempWeatherWind HumidityBarometerVisibility
9:00 AM
Mon, Feb 8
77 °FBroken clouds.2 mph94%29.95 "HgN/A
8:00 AM73 °FRain. Broken clouds.5 mph94%29.92 "Hg4 mi
7:00 AM79 °FThunderstorms. Broken clouds.5 mph89%29.92 "Hg2 mi
6:40 AM79 °FStrong thunderstorms. More clouds than sun.3 mph100%29.89 "Hg1 mi
6:30 AM81 °FThunderstorms. Broken clouds.2 mph89%29.89 "Hg4 mi
6:00 AM81 °FThunderstorms. Passing clouds.2 mph89%29.89 "HgN/A
5:00 AM81 °FPassing clouds.3 mph89%29.89 "HgN/A
4:00 AM81 °FThunderstorms. Passing clouds.2 mph89%29.86 "HgN/A
3:00 AM81 °FPassing clouds.2 mph89%29.86 "HgN/A
2:00 AM81 °FPassing clouds.2 mph89%29.89 "HgN/A
1:00 AM81 °FPassing clouds.2 mph89%29.89 "HgN/A
12:00 AM81 °FPassing clouds.No wind89%29.89 "HgN/A
11:00 PM
Sun, Feb 7
81 °FPassing clouds.No wind89%29.89 "HgN/A
10:00 PM82 °FPassing clouds.No wind84%29.89 "HgN/A
9:00 PM82 °FPassing clouds.5 mph84%29.86 "HgN/A
8:00 PM82 °FPassing clouds.5 mph84%29.86 "HgN/A
6:00 PM84 °FScattered clouds.2 mph79%29.80 "HgN/A
5:00 PM84 °FPartly sunny.2 mph79%29.83 "HgN/A
4:00 PM84 °FPartly sunny.7 mph79%29.83 "HgN/A
3:00 PM86 °FPartly sunny.7 mph75%29.89 "HgN/A
2:00 PM86 °FPartly sunny.7 mph75%29.89 "HgN/A
1:00 PM86 °FBroken clouds.7 mph75%29.89 "HgN/A
12:00 PM86 °FBroken clouds.7 mph79%29.95 "HgN/A
11:00 AM86 °FPartly sunny.2 mph75%29.95 "Hg6 mi
10:00 AM84 °FPartly sunny.2 mph79%29.95 "Hg6 mi
Weather by CustomWeather, © 2016

See weather overviewHow to use our weather pages